Time,TemperatureF,DewpointF,PressureIn,WindDirection,WindDirectionDegrees,WindSpeedMPH,WindSpeedGustMPH,Humidity,HourlyPrecipIn,Conditions,Clouds,dailyrainin,SoftwareType,DateUTC
2013-05-07 00:00:00,61.0,57.1,29.96,NNE,28,0.0,0.0,87,0.00,,,0.00,Wunderground v.1.15,2013-05-07 05:00:00,
2013-05-07 00:05:00,60.9,57.0,29.96,NNE,28,0.0,0.0,87,0.00,,,0.00,Wunderground v.1.15,2013-05-07 05:05:00,
2013-05-07 00:10:00,60.8,56.9,29.96,NNE,28,0.0,0.0,87,0.00,,,0.00,Wunderground v.1.15,2013-05-07 05:10:00,
2013-05-07 00:15:00,60.7,56.8,29.96,NNE,28,0.0,0.0,87,0.00,,,0.00,Wunderground v.1.15,2013-05-07 05:15:00,
2013-05-07 00:20:00,60.5,56.6,29.96,NNE,28,0.0,0.0,87,0.00,,,0.00,Wunderground v.1.15,2013-05-07 05:20:00,
2013-05-07 00:30:00,60.1,56.2,29.95,NNE,28,0.0,0.0,87,0.00,,,0.00,Wunderground v.1.15,2013-05-07 05:30:00,
2013-05-07 00:40:00,59.5,55.9,29.96,NNE,28,0.0,0.0,88,0.00,,,0.00,Wunderground v.1.15,2013-05-07 05:40:00,
2013-05-07 00:45:00,59.2,55.6,29.96,NNE,28,0.0,0.0,88,0.00,,,0.00,Wunderground v.1.15,2013-05-07 05:45:00,
2013-05-07 00:50:00,58.8,55.6,29.96,NNE,28,0.0,0.0,89,0.00,,,0.00,Wunderground v.1.15,2013-05-07 05:50:00,
2013-05-07 00:55:00,58.5,55.3,29.96,NNE,28,0.0,0.0,89,0.00,,,0.00,Wunderground v.1.15,2013-05-07 05:55:00,
2013-05-07 01:00:00,58.1,54.9,29.96,NNE,28,0.0,0.0,89,0.00,,,0.00,Wunderground v.1.15,2013-05-07 06:00:00,
2013-05-07 01:10:00,57.6,54.7,29.96,NNE,28,0.0,0.0,90,0.00,,,0.00,Wunderground v.1.15,2013-05-07 06:10:00,
2013-05-07 01:20:00,56.9,54.3,29.96,NNE,28,0.0,0.0,91,0.00,,,0.00,Wunderground v.1.15,2013-05-07 06:20:00,
2013-05-07 01:25:00,56.6,54.0,29.96,NNE,28,0.0,0.0,91,0.00,,,0.00,Wunderground v.1.15,2013-05-07 06:25:00,
2013-05-07 01:30:00,56.4,53.8,29.96,NNE,28,0.0,0.0,91,0.00,,,0.00,Wunderground v.1.15,2013-05-07 06:30:00,
2013-05-07 01:35:00,56.2,53.9,29.96,NNE,28,0.0,0.0,92,0.00,,,0.00,Wunderground v.1.15,2013-05-07 06:35:00,
2013-05-07 01:40:00,56.0,53.7,29.96,NNE,28,0.0,0.0,92,0.00,,,0.00,Wunderground v.1.15,2013-05-07 06:40:00,
2013-05-07 01:45:00,55.9,53.9,29.96,NNE,28,0.0,0.0,93,0.00,,,0.00,Wunderground v.1.15,2013-05-07 06:45:00,
2013-05-07 01:50:00,55.8,53.8,29.95,NNE,28,0.0,0.0,93,0.00,,,0.00,Wunderground v.1.15,2013-05-07 06:50:00,
2013-05-07 02:00:00,55.7,54.0,29.96,NNE,28,0.0,0.0,94,0.00,,,0.00,Wunderground v.1.15,2013-05-07 07:00:00,
2013-05-07 02:10:00,55.6,53.9,29.96,NNE,28,0.0,0.0,94,0.00,,,0.00,Wunderground v.1.15,2013-05-07 07:10:00,
2013-05-07 02:15:00,55.6,53.9,29.96,NNE,28,0.0,0.0,94,0.00,,,0.00,Wunderground v.1.15,2013-05-07 07:15:00,
2013-05-07 02:20:00,55.5,53.8,29.96,NNE,28,0.0,0.0,94,0.00,,,0.00,Wunderground v.1.15,2013-05-07 07:20:00,
2013-05-07 02:25:00,55.5,53.8,29.96,NNE,28,0.0,0.0,94,0.00,,,0.00,Wunderground v.1.15,2013-05-07 07:25:00,
2013-05-07 02:35:00,55.3,53.6,29.96,NNE,28,0.0,0.0,94,0.00,,,0.00,Wunderground v.1.15,2013-05-07 07:35:00,
2013-05-07 02:40:00,55.2,53.5,29.96,NNE,28,0.0,0.0,94,0.00,,,0.00,Wunderground v.1.15,2013-05-07 07:40:00,
2013-05-07 02:50:00,55.1,53.7,29.96,NNE,28,0.0,0.0,95,0.00,,,0.00,Wunderground v.1.15,2013-05-07 07:50:00,
2013-05-07 02:55:00,55.1,53.7,29.96,NNE,28,0.0,0.0,95,0.00,,,0.00,Wunderground v.1.15,2013-05-07 07:55:00,
2013-05-07 03:00:00,55.1,53.7,29.96,NNE,28,0.0,0.0,95,0.00,,,0.00,Wunderground v.1.15,2013-05-07 08:00:00,
2013-05-07 03:10:00,55.0,53.6,29.96,NNE,28,0.0,0.0,95,0.00,,,0.00,Wunderground v.1.15,2013-05-07 08:10:00,
2013-05-07 03:15:00,55.0,53.6,29.96,NNE,28,0.0,0.0,95,0.00,,,0.00,Wunderground v.1.15,2013-05-07 08:15:00,
2013-05-07 03:20:00,55.0,53.6,29.96,NNE,28,0.0,0.0,95,0.00,,,0.00,Wunderground v.1.15,2013-05-07 08:20:00,
2013-05-07 03:25:00,55.1,53.7,29.96,NNE,28,0.0,0.0,95,0.00,,,0.00,Wunderground v.1.15,2013-05-07 08:25:00,
2013-05-07 03:30:00,55.1,53.7,29.96,NNE,28,0.0,0.0,95,0.00,,,0.00,Wunderground v.1.15,2013-05-07 08:30:00,
2013-05-07 03:35:00,55.2,53.8,29.96,NNE,28,0.0,0.0,95,0.00,,,0.00,Wunderground v.1.15,2013-05-07 08:35:00,
2013-05-07 03:40:00,55.2,54.1,29.96,NNE,28,0.0,0.0,96,0.00,,,0.00,Wunderground v.1.15,2013-05-07 08:40:00,
2013-05-07 03:50:00,55.3,54.2,29.96,NNE,28,0.0,0.0,96,0.00,,,0.00,Wunderground v.1.15,2013-05-07 08:50:00,
2013-05-07 04:00:00,55.5,54.4,29.96,NNE,28,0.0,0.0,96,0.00,,,0.00,Wunderground v.1.15,2013-05-07 09:00:00,
2013-05-07 04:10:00,55.5,54.4,29.96,NNE,28,0.0,0.0,96,0.00,,,0.00,Wunderground v.1.15,2013-05-07 09:10:00,
2013-05-07 04:15:00,55.5,54.4,29.96,NNE,28,0.0,0.0,96,0.00,,,0.00,Wunderground v.1.15,2013-05-07 09:15:00,
2013-05-07 04:25:00,55.5,54.4,29.96,NNE,28,0.0,0.0,96,0.00,,,0.00,Wunderground v.1.15,2013-05-07 09:25:00,
2013-05-07 04:35:00,55.4,54.3,29.96,NNE,28,0.0,0.0,96,0.00,,,0.00,Wunderground v.1.15,2013-05-07 09:35:00,
2013-05-07 04:40:00,55.4,54.3,29.96,NNE,28,0.0,0.0,96,0.00,,,0.00,Wunderground v.1.15,2013-05-07 09:40:00,
2013-05-07 04:45:00,55.4,54.3,29.96,NNE,28,0.0,0.0,96,0.00,,,0.00,Wunderground v.1.15,2013-05-07 09:45:00,
2013-05-07 04:50:00,55.3,54.2,29.96,NNE,28,0.0,0.0,96,0.00,,,0.00,Wunderground v.1.15,2013-05-07 09:50:00,
2013-05-07 04:55:00,55.4,54.3,29.96,NNE,28,0.0,0.0,96,0.00,,,0.00,Wunderground v.1.15,2013-05-07 09:55:00,
2013-05-07 05:00:00,55.4,54.3,29.97,NNE,28,0.0,0.0,96,0.00,,,0.00,Wunderground v.1.15,2013-05-07 10:00:00,
2013-05-07 05:10:00,55.4,54.3,29.97,NNE,28,0.0,0.0,96,0.00,,,0.00,Wunderground v.1.15,2013-05-07 10:10:00,
2013-05-07 05:15:00,55.4,55.1,29.97,NNE,28,0.0,0.0,99,0.00,,,0.00,Wunderground v.1.15,2013-05-07 10:15:00,
2013-05-07 05:20:00,55.4,54.3,29.97,NNE,28,0.0,0.0,96,0.00,,,0.00,Wunderground v.1.15,2013-05-07 10:20:00,
2013-05-07 05:25:00,55.5,54.4,29.97,NNE,28,0.0,0.0,96,0.00,,,0.00,Wunderground v.1.15,2013-05-07 10:25:00,
2013-05-07 05:30:00,55.5,54.4,29.97,NNE,28,0.0,0.0,96,0.00,,,0.00,Wunderground v.1.15,2013-05-07 10:30:00,
2013-05-07 05:40:00,55.5,54.4,29.97,NNE,28,0.0,0.0,96,0.00,,,0.00,Wunderground v.1.15,2013-05-07 10:40:00,
2013-05-07 05:50:00,55.6,54.5,29.97,NNE,28,0.0,0.0,96,0.00,,,0.00,Wunderground v.1.15,2013-05-07 10:50:00,
2013-05-07 05:55:00,55.6,54.5,29.98,NNE,28,0.0,0.0,96,0.00,,,0.00,Wunderground v.1.15,2013-05-07 10:55:00,
2013-05-07 06:00:00,55.6,54.5,29.98,NNE,28,0.0,0.0,96,0.00,,,0.00,Wunderground v.1.15,2013-05-07 11:00:00,
2013-05-07 06:10:00,55.7,54.6,29.98,NNE,28,0.0,0.0,96,0.00,,,0.00,Wunderground v.1.15,2013-05-07 11:10:00,
2013-05-07 06:15:00,55.8,55.0,29.98,NNE,28,0.0,0.0,97,0.00,,,0.00,Wunderground v.1.15,2013-05-07 11:15:00,
2013-05-07 06:25:00,55.9,55.1,29.98,NNE,28,0.0,0.0,97,0.00,,,0.00,Wunderground v.1.15,2013-05-07 11:25:00,
2013-05-07 06:30:00,56.0,55.2,29.98,NNE,28,0.0,0.0,97,0.00,,,0.00,Wunderground v.1.15,2013-05-07 11:30:00,
2013-05-07 06:35:00,56.2,55.4,29.98,NNE,28,0.0,0.0,97,0.00,,,0.00,Wunderground v.1.15,2013-05-07 11:35:00,
2013-05-07 06:40:00,56.3,55.5,29.99,NNE,28,0.0,0.0,97,0.00,,,0.00,Wunderground v.1.15,2013-05-07 11:40:00,
2013-05-07 06:45:00,56.5,55.7,29.99,NNE,28,0.0,0.0,97,0.00,,,0.00,Wunderground v.1.15,2013-05-07 11:45:00,
2013-05-07 06:50:00,56.6,55.8,29.99,NNE,28,0.0,0.0,97,0.00,,,0.00,Wunderground v.1.15,2013-05-07 11:50:00,
2013-05-07 06:55:00,56.8,56.0,29.99,NNE,28,0.0,0.0,97,0.00,,,0.00,Wunderground v.1.15,2013-05-07 11:55:00,
2013-05-07 07:05:00,57.1,56.3,29.99,NNE,28,0.0,0.0,97,0.00,,,0.00,Wunderground v.1.15,2013-05-07 12:05:00,
2013-05-07 07:10:00,57.2,56.4,29.99,NNE,28,0.0,0.0,97,0.00,,,0.00,Wunderground v.1.15,2013-05-07 12:10:00,
2013-05-07 07:15:00,57.4,56.6,29.99,NNE,28,0.0,0.0,97,0.00,,,0.00,Wunderground v.1.15,2013-05-07 12:15:00,
2013-05-07 07:20:00,57.6,56.8,29.99,NNE,28,0.0,0.0,97,0.00,,,0.00,Wunderground v.1.15,2013-05-07 12:20:00,
2013-05-07 07:25:00,57.8,57.0,29.99,NNE,28,0.0,0.0,97,0.00,,,0.00,Wunderground v.1.15,2013-05-07 12:25:00,
2013-05-07 07:30:00,58.2,57.4,29.99,NNE,28,0.0,0.0,97,0.00,,,0.00,Wunderground v.1.15,2013-05-07 12:30:00,
2013-05-07 07:40:00,58.8,58.0,29.99,NNE,28,0.0,0.0,97,0.00,,,0.00,Wunderground v.1.15,2013-05-07 12:40:00,
2013-05-07 07:45:00,59.0,58.2,30.00,NNE,28,0.0,0.0,97,0.00,,,0.00,Wunderground v.1.15,2013-05-07 12:45:00,
2013-05-07 07:50:00,59.4,58.5,30.00,NNE,28,0.0,0.0,97,0.00,,,0.00,Wunderground v.1.15,2013-05-07 12:50:00,
2013-05-07 07:55:00,59.7,58.6,30.00,NNE,28,0.0,0.0,96,0.00,,,0.00,Wunderground v.1.15,2013-05-07 12:55:00,
2013-05-07 08:00:00,60.0,58.9,30.00,NNE,28,0.0,0.0,96,0.00,,,0.00,Wunderground v.1.15,2013-05-07 13:00:00,
2013-05-07 08:10:00,60.5,59.1,30.00,NNE,28,0.0,0.0,95,0.00,,,0.00,Wunderground v.1.15,2013-05-07 13:10:00,
2013-05-07 08:15:00,60.9,59.2,30.00,NNE,28,0.0,0.0,94,0.00,,,0.00,Wunderground v.1.15,2013-05-07 13:15:00,
2013-05-07 08:20:00,61.2,59.5,30.00,NNE,28,0.0,1.0,94,0.00,,,0.00,Wunderground v.1.15,2013-05-07 13:20:00,
2013-05-07 08:25:00,61.6,59.6,30.00,NNE,28,0.0,1.0,93,0.00,,,0.00,Wunderground v.1.15,2013-05-07 13:25:00,
2013-05-07 08:30:00,61.9,59.2,30.00,NNE,28,1.0,1.0,91,0.00,,,0.00,Wunderground v.1.15,2013-05-07 13:30:00,
2013-05-07 08:35:00,62.3,59.6,30.01,NNE,28,0.0,1.0,91,0.00,,,0.00,Wunderground v.1.15,2013-05-07 13:35:00,
2013-05-07 08:40:00,62.8,59.8,30.00,NNE,28,0.0,0.0,90,0.00,,,0.00,Wunderground v.1.15,2013-05-07 13:40:00,
2013-05-07 08:50:00,63.7,60.1,30.01,NNE,28,1.0,1.0,88,0.00,,,0.00,Wunderground v.1.15,2013-05-07 13:50:00,
2013-05-07 08:55:00,64.1,59.8,30.01,NNE,28,1.0,1.0,86,0.00,,,0.00,Wunderground v.1.15,2013-05-07 13:55:00,
2013-05-07 09:00:00,64.5,59.9,30.01,NNE,28,1.0,1.0,85,0.00,,,0.00,Wunderground v.1.15,2013-05-07 14:00:00,
2013-05-07 09:10:00,65.1,59.5,30.01,NNE,28,1.0,1.0,82,0.00,,,0.00,Wunderground v.1.15,2013-05-07 14:10:00,
2013-05-07 09:15:00,65.4,59.8,30.01,NNE,28,1.0,2.0,82,0.00,,,0.00,Wunderground v.1.15,2013-05-07 14:15:00,
2013-05-07 09:25:00,65.9,59.9,30.02,NNE,28,1.0,2.0,81,0.00,,,0.00,Wunderground v.1.15,2013-05-07 14:25:00,
2013-05-07 09:30:00,66.1,59.4,30.02,NNE,28,1.0,2.0,79,0.00,,,0.00,Wunderground v.1.15,2013-05-07 14:30:00,
2013-05-07 09:35:00,66.3,59.9,30.02,NNE,28,2.0,2.0,80,0.00,,,0.00,Wunderground v.1.15,2013-05-07 14:35:00,
2013-05-07 09:40:00,66.5,59.4,30.02,NNE,28,1.0,1.0,78,0.00,,,0.00,Wunderground v.1.15,2013-05-07 14:40:00,
2013-05-07 09:50:00,67.1,60.7,30.02,NNE,28,1.0,1.0,80,0.00,,,0.00,Wunderground v.1.15,2013-05-07 14:50:00,
2013-05-07 10:00:00,67.6,60.5,30.01,NNE,28,1.0,1.0,78,0.00,,,0.00,Wunderground v.1.15,2013-05-07 15:00:00,
2013-05-07 10:10:00,68.4,59.8,30.02,NNE,28,1.0,1.0,74,0.00,,,0.00,Wunderground v.1.15,2013-05-07 15:10:00,
2013-05-07 10:15:00,68.6,60.0,30.02,NNE,28,2.0,2.0,74,0.00,,,0.00,Wunderground v.1.15,2013-05-07 15:15:00,
2013-05-07 10:20:00,68.8,60.2,30.02,NNE,28,1.0,1.0,74,0.00,,,0.00,Wunderground v.1.15,2013-05-07 15:20:00,
2013-05-07 10:25:00,69.2,60.6,30.02,NNE,28,1.0,2.0,74,0.00,,,0.00,Wunderground v.1.15,2013-05-07 15:25:00,
2013-05-07 10:30:00,69.3,60.3,30.02,NNE,28,2.0,2.0,73,0.00,,,0.00,Wunderground v.1.15,2013-05-07 15:30:00,
2013-05-07 10:40:00,69.9,60.8,30.02,NNE,28,1.0,1.0,73,0.00,,,0.00,Wunderground v.1.15,2013-05-07 15:40:00,
2013-05-07 10:45:00,70.1,60.7,30.02,NNE,28,2.0,2.0,72,0.00,,,0.00,Wunderground v.1.15,2013-05-07 15:45:00,
2013-05-07 10:50:00,70.2,60.0,30.02,NNE,28,2.0,3.0,70,0.00,,,0.00,Wunderground v.1.15,2013-05-07 15:50:00,
2013-05-07 11:00:00,70.3,59.2,30.02,NNE,28,3.0,3.0,68,0.00,,,0.00,Wunderground v.1.15,2013-05-07 16:00:00,
2013-05-07 11:10:00,70.8,60.1,30.02,NNE,28,1.0,1.0,69,0.00,,,0.00,Wunderground v.1.15,2013-05-07 16:10:00,
2013-05-07 11:15:00,71.0,60.3,30.02,NNE,28,1.0,1.0,69,0.00,,,0.00,Wunderground v.1.15,2013-05-07 16:15:00,
2013-05-07 11:20:00,71.3,60.2,30.02,NNE,28,1.0,1.0,68,0.00,,,0.00,Wunderground v.1.15,2013-05-07 16:20:00,
2013-05-07 11:25:00,71.4,59.0,30.02,NNE,28,2.0,2.0,65,0.00,,,0.00,Wunderground v.1.15,2013-05-07 16:25:00,
2013-05-07 11:35:00,72.0,60.9,30.02,NNE,28,1.0,2.0,68,0.00,,,0.00,Wunderground v.1.15,2013-05-07 16:35:00,
2013-05-07 11:40:00,72.4,60.4,30.02,NNE,28,1.0,1.0,66,0.00,,,0.00,Wunderground v.1.15,2013-05-07 16:40:00,
2013-05-07 11:45:00,72.8,60.8,30.02,NNE,28,1.0,1.0,66,0.00,,,0.00,Wunderground v.1.15,2013-05-07 16:45:00,
2013-05-07 11:55:00,73.4,60.9,30.02,NNE,28,1.0,2.0,65,0.00,,,0.00,Wunderground v.1.15,2013-05-07 16:55:00,
2013-05-07 12:00:00,73.7,60.8,30.02,NNE,28,1.0,1.0,64,0.00,,,0.00,Wunderground v.1.15,2013-05-07 17:00:00,
2013-05-07 12:10:00,74.2,60.3,30.02,NNE,28,1.0,2.0,62,0.00,,,0.00,Wunderground v.1.15,2013-05-07 17:10:00,
2013-05-07 12:15:00,73.9,60.1,30.01,NNE,28,2.0,2.0,62,0.00,,,0.00,Wunderground v.1.15,2013-05-07 17:15:00,
2013-05-07 12:20:00,73.7,60.3,30.01,NNE,28,1.0,1.0,63,0.00,,,0.00,Wunderground v.1.15,2013-05-07 17:20:00,
2013-05-07 12:30:00,74.4,60.5,30.01,NNE,28,2.0,2.0,62,0.00,,,0.00,Wunderground v.1.15,2013-05-07 17:30:00,
2013-05-07 12:35:00,75.1,61.2,30.01,NNE,28,2.0,2.0,62,0.00,,,0.00,Wunderground v.1.15,2013-05-07 17:35:00,
2013-05-07 12:45:00,75.9,60.1,30.01,NNE,30,1.0,4.0,58,0.00,,,0.00,Wunderground v.1.15,2013-05-07 17:45:00,
2013-05-07 12:50:00,76.3,60.4,30.01,NNE,23,2.0,2.0,58,0.00,,,0.00,Wunderground v.1.15,2013-05-07 17:50:00,
2013-05-07 12:55:00,76.5,60.6,30.00,NNE,22,2.0,3.0,58,0.00,,,0.00,Wunderground v.1.15,2013-05-07 17:55:00,
2013-05-07 13:00:00,76.8,59.9,30.00,NNE,22,2.0,2.0,56,0.00,,,0.00,Wunderground v.1.15,2013-05-07 18:00:00,
2013-05-07 13:10:00,77.4,60.5,30.00,NNE,22,1.0,2.0,56,0.00,,,0.00,Wunderground v.1.15,2013-05-07 18:10:00,
2013-05-07 13:20:00,77.6,58.0,30.00,NNE,27,2.0,3.0,51,0.00,,,0.00,Wunderground v.1.15,2013-05-07 18:20:00,
2013-05-07 13:25:00,77.4,57.9,30.00,NNE,28,3.0,3.0,51,0.00,,,0.00,Wunderground v.1.15,2013-05-07 18:25:00,
2013-05-07 13:30:00,77.5,62.0,30.00,NNE,28,1.0,1.0,59,0.00,,,0.00,Wunderground v.1.15,2013-05-07 18:30:00,
2013-05-07 13:35:00,78.1,59.6,30.00,NNE,29,2.0,2.0,53,0.00,,,0.00,Wunderground v.1.15,2013-05-07 18:35:00,
2013-05-07 13:45:00,78.8,60.2,29.99,ENE,59,1.0,3.0,53,0.00,,,0.00,Wunderground v.1.15,2013-05-07 18:45:00,
2013-05-07 13:50:00,79.2,59.5,29.99,ENE,65,2.0,2.0,51,0.00,,,0.00,Wunderground v.1.15,2013-05-07 18:50:00,
2013-05-07 13:55:00,79.5,60.9,29.99,ENE,65,2.0,4.0,53,0.00,,,0.00,Wunderground v.1.15,2013-05-07 18:55:00,
2013-05-07 14:00:00,79.4,59.1,29.98,NE,34,3.0,3.0,50,0.00,,,0.00,Wunderground v.1.15,2013-05-07 19:00:00,
2013-05-07 14:10:00,79.9,60.2,29.99,ENE,64,2.0,4.0,51,0.00,,,0.00,Wunderground v.1.15,2013-05-07 19:10:00,
2013-05-07 14:20:00,80.0,59.1,29.99,ENE,62,2.0,2.0,49,0.00,,,0.00,Wunderground v.1.15,2013-05-07 19:20:00,
2013-05-07 14:30:00,79.7,58.8,29.99,NNE,20,2.0,2.0,49,0.00,,,0.00,Wunderground v.1.15,2013-05-07 19:30:00,
2013-05-07 14:35:00,79.8,58.9,29.98,NNE,20,2.0,2.0,49,0.00,,,0.00,Wunderground v.1.15,2013-05-07 19:35:00,
2013-05-07 14:40:00,80.0,57.4,29.98,NNE,20,1.0,1.0,46,0.00,,,0.00,Wunderground v.1.15,2013-05-07 19:40:00,
2013-05-07 14:45:00,79.5,56.9,29.98,NNE,14,1.0,1.0,46,0.00,,,0.00,Wunderground v.1.15,2013-05-07 19:45:00,
2013-05-07 14:50:00,78.9,58.7,29.98,NNE,14,1.0,1.0,50,0.00,,,0.00,Wunderground v.1.15,2013-05-07 19:50:00,
2013-05-07 15:00:00,77.3,57.8,29.97,NNE,14,1.0,2.0,51,0.00,,,0.00,Wunderground v.1.15,2013-05-07 20:00:00,
2013-05-07 15:10:00,75.6,57.8,29.98,NNE,13,2.0,4.0,54,0.00,,,0.00,Wunderground v.1.15,2013-05-07 20:10:00,
2013-05-07 15:15:00,74.5,58.8,29.98,NNE,12,3.0,4.0,58,0.00,,,0.00,Wunderground v.1.15,2013-05-07 20:15:00,
2013-05-07 15:20:00,73.8,60.4,29.98,NNE,12,2.0,2.0,63,0.00,,,0.01,Wunderground v.1.15,2013-05-07 20:20:00,
2013-05-07 15:25:00,73.1,61.9,29.98,NNE,12,1.0,2.0,68,0.19,,,0.02,Wunderground v.1.15,2013-05-07 20:25:00,
2013-05-07 15:35:00,70.7,62.4,29.98,NNE,12,1.0,2.0,75,0.11,,,0.04,Wunderground v.1.15,2013-05-07 20:35:00,
2013-05-07 15:40:00,69.7,62.2,29.98,NNE,12,1.0,1.0,77,0.08,,,0.04,Wunderground v.1.15,2013-05-07 20:40:00,
2013-05-07 15:45:00,68.9,62.8,29.97,NNE,12,1.0,1.0,81,0.05,,,0.04,Wunderground v.1.15,2013-05-07 20:45:00,
2013-05-07 15:50:00,68.4,62.7,29.97,NNE,12,1.0,1.0,82,0.00,,,0.04,Wunderground v.1.15,2013-05-07 20:50:00,
2013-05-07 15:55:00,68.0,63.0,29.97,NNE,12,0.0,1.0,84,0.00,,,0.04,Wunderground v.1.15,2013-05-07 20:55:00,
2013-05-07 16:00:00,67.9,62.9,29.97,NNE,12,0.0,0.0,84,0.00,,,0.04,Wunderground v.1.15,2013-05-07 21:00:00,
2013-05-07 16:10:00,68.0,63.0,29.97,NNE,12,0.0,0.0,84,0.00,,,0.04,Wunderground v.1.15,2013-05-07 21:10:00,
2013-05-07 16:15:00,68.2,63.2,29.97,NNE,12,0.0,0.0,84,0.00,,,0.04,Wunderground v.1.15,2013-05-07 21:15:00,
2013-05-07 16:20:00,68.5,62.8,29.97,NNE,12,1.0,3.0,82,0.00,,,0.04,Wunderground v.1.15,2013-05-07 21:20:00,
2013-05-07 16:25:00,68.9,62.5,29.97,NNE,12,1.0,3.0,80,0.00,,,0.04,Wunderground v.1.15,2013-05-07 21:25:00,
2013-05-07 16:30:00,69.3,62.5,29.97,NNE,12,1.0,1.0,79,0.00,,,0.04,Wunderground v.1.15,2013-05-07 21:30:00,
2013-05-07 16:35:00,69.4,62.6,29.97,NNE,12,0.0,1.0,79,0.00,,,0.04,Wunderground v.1.15,2013-05-07 21:35:00,
2013-05-07 16:45:00,69.2,62.8,29.97,NNE,12,1.0,1.0,80,0.00,,,0.04,Wunderground v.1.15,2013-05-07 21:45:00,
2013-05-07 16:55:00,68.8,61.7,29.97,NNE,12,0.0,1.0,78,0.00,,,0.04,Wunderground v.1.15,2013-05-07 21:55:00,
2013-05-07 17:00:00,68.7,61.9,29.97,NNE,12,0.0,0.0,79,0.00,,,0.04,Wunderground v.1.15,2013-05-07 22:00:00,
2013-05-07 17:10:00,68.4,62.0,29.97,NNE,12,0.0,0.0,80,0.00,,,0.04,Wunderground v.1.15,2013-05-07 22:10:00,
2013-05-07 17:20:00,68.1,62.0,29.97,NNE,12,0.0,0.0,81,0.00,,,0.04,Wunderground v.1.15,2013-05-07 22:20:00,
2013-05-07 17:30:00,67.9,61.5,29.98,NNE,12,0.0,0.0,80,0.00,,,0.04,Wunderground v.1.15,2013-05-07 22:30:00,
2013-05-07 17:35:00,67.8,61.8,29.97,NNE,12,0.0,0.0,81,0.00,,,0.04,Wunderground v.1.15,2013-05-07 22:35:00,
2013-05-07 17:40:00,67.8,61.8,29.98,NNE,12,0.0,0.0,81,0.00,,,0.04,Wunderground v.1.15,2013-05-07 22:40:00,
2013-05-07 17:45:00,67.6,61.6,29.97,NNE,12,0.0,0.0,81,0.00,,,0.04,Wunderground v.1.15,2013-05-07 22:45:00,
2013-05-07 17:50:00,67.6,61.9,29.97,NNE,12,0.0,0.0,82,0.00,,,0.04,Wunderground v.1.15,2013-05-07 22:50:00,
2013-05-07 17:55:00,67.4,61.7,29.97,NNE,12,0.0,0.0,82,0.00,,,0.04,Wunderground v.1.15,2013-05-07 22:55:00,
2013-05-07 18:00:00,67.2,61.5,29.97,NNE,12,0.0,0.0,82,0.00,,,0.04,Wunderground v.1.15,2013-05-07 23:00:00,
2013-05-07 18:10:00,67.0,61.0,29.97,NNE,12,0.0,0.0,81,0.00,,,0.04,Wunderground v.1.15,2013-05-07 23:10:00,
2013-05-07 18:15:00,66.9,60.9,29.97,NNE,12,0.0,0.0,81,0.00,,,0.04,Wunderground v.1.15,2013-05-07 23:15:00,
2013-05-07 18:20:00,66.8,61.1,29.96,NNE,12,0.0,0.0,82,0.00,,,0.04,Wunderground v.1.15,2013-05-07 23:20:00,
2013-05-07 18:30:00,66.7,61.0,29.96,NNE,12,0.0,0.0,82,0.00,,,0.04,Wunderground v.1.15,2013-05-07 23:30:00,
2013-05-07 18:35:00,66.6,60.6,29.96,NNE,12,0.0,0.0,81,0.00,,,0.04,Wunderground v.1.15,2013-05-07 23:35:00,
2013-05-07 18:45:00,66.5,61.2,29.96,NNE,12,0.0,0.0,83,0.00,,,0.04,Wunderground v.1.15,2013-05-07 23:45:00,
2013-05-07 18:50:00,66.4,61.1,29.96,NNE,12,0.0,0.0,83,0.00,,,0.04,Wunderground v.1.15,2013-05-07 23:50:00,
2013-05-07 18:55:00,66.3,61.0,29.96,NNE,12,0.0,0.0,83,0.00,,,0.04,Wunderground v.1.15,2013-05-07 23:55:00,
2013-05-07 19:00:00,66.3,61.0,29.96,NNE,12,0.0,0.0,83,0.00,,,0.04,Wunderground v.1.15,2013-05-08 00:00:00,
2013-05-07 19:10:00,66.3,60.6,29.96,NNE,12,0.0,0.0,82,0.00,,,0.04,Wunderground v.1.15,2013-05-08 00:10:00,
2013-05-07 19:20:00,66.4,61.1,29.97,NNE,12,0.0,0.0,83,0.00,,,0.04,Wunderground v.1.15,2013-05-08 00:20:00,
2013-05-07 19:25:00,66.4,61.4,29.97,NNE,12,0.0,0.0,84,0.00,,,0.04,Wunderground v.1.15,2013-05-08 00:25:00,
2013-05-07 19:30:00,66.3,61.3,29.97,NNE,12,0.0,0.0,84,0.00,,,0.04,Wunderground v.1.15,2013-05-08 00:30:00,
2013-05-07 19:35:00,66.3,61.3,29.97,NNE,12,0.0,0.0,84,0.00,,,0.04,Wunderground v.1.15,2013-05-08 00:35:00,
2013-05-07 19:40:00,66.2,61.2,29.97,NNE,12,0.0,0.0,84,0.00,,,0.04,Wunderground v.1.15,2013-05-08 00:40:00,
2013-05-07 19:45:00,66.1,61.5,29.97,NNE,12,0.0,0.0,85,0.00,,,0.04,Wunderground v.1.15,2013-05-08 00:45:00,
2013-05-07 19:55:00,65.8,61.2,29.97,NNE,12,0.0,0.0,85,0.00,,,0.04,Wunderground v.1.15,2013-05-08 00:55:00,
2013-05-07 20:00:00,65.6,61.0,29.97,NNE,12,0.0,0.0,85,0.00,,,0.04,Wunderground v.1.15,2013-05-08 01:00:00,
2013-05-07 20:10:00,65.2,60.6,29.97,NNE,12,0.0,0.0,85,0.00,,,0.04,Wunderground v.1.15,2013-05-08 01:10:00,
2013-05-07 20:15:00,65.0,60.7,29.97,NNE,12,0.0,0.0,86,0.00,,,0.04,Wunderground v.1.15,2013-05-08 01:15:00,
2013-05-07 20:25:00,64.5,60.2,29.97,NNE,12,0.0,0.0,86,0.00,,,0.04,Wunderground v.1.15,2013-05-08 01:25:00,
2013-05-07 20:30:00,64.3,60.0,29.97,NNE,12,0.0,0.0,86,0.00,,,0.04,Wunderground v.1.15,2013-05-08 01:30:00,
2013-05-07 20:35:00,64.0,60.1,29.97,NNE,12,0.0,0.0,87,0.00,,,0.04,Wunderground v.1.15,2013-05-08 01:35:00,
2013-05-07 20:40:00,63.7,59.4,29.97,NNE,12,0.0,0.0,86,0.00,,,0.04,Wunderground v.1.15,2013-05-08 01:40:00,
2013-05-07 20:50:00,62.9,59.0,29.97,NNE,12,0.0,0.0,87,0.00,,,0.04,Wunderground v.1.15,2013-05-08 01:50:00,
2013-05-07 21:00:00,62.1,58.5,29.97,NNE,12,0.0,0.0,88,0.00,,,0.04,Wunderground v.1.15,2013-05-08 02:00:00,
2013-05-07 21:10:00,61.4,57.8,29.97,NNE,12,0.0,0.0,88,0.00,,,0.04,Wunderground v.1.15,2013-05-08 02:10:00,
2013-05-07 21:15:00,61.1,57.8,29.97,NNE,12,0.0,0.0,89,0.00,,,0.04,Wunderground v.1.15,2013-05-08 02:15:00,
2013-05-07 21:25:00,60.4,57.1,29.97,North,11,0.0,0.0,89,0.00,,,0.04,Wunderground v.1.15,2013-05-08 02:25:00,
2013-05-07 21:35:00,59.8,56.9,29.98,NNE,12,0.0,0.0,90,0.00,,,0.04,Wunderground v.1.15,2013-05-08 02:35:00,
2013-05-07 21:40:00,59.5,56.6,29.97,NNE,12,0.0,0.0,90,0.00,,,0.04,Wunderground v.1.15,2013-05-08 02:40:00,
2013-05-07 21:45:00,59.2,56.6,29.98,NNE,12,0.0,0.0,91,0.00,,,0.04,Wunderground v.1.15,2013-05-08 02:45:00,
2013-05-07 21:50:00,58.9,56.3,29.98,NNE,12,0.0,0.0,91,0.00,,,0.04,Wunderground v.1.15,2013-05-08 02:50:00,
2013-05-07 21:55:00,58.7,56.4,29.98,NNE,12,0.0,0.0,92,0.00,,,0.04,Wunderground v.1.15,2013-05-08 02:55:00,
2013-05-07 22:00:00,58.5,56.2,29.98,NNE,12,0.0,0.0,92,0.00,,,0.04,Wunderground v.1.15,2013-05-08 03:00:00,
2013-05-07 22:10:00,58.0,55.7,29.98,NNE,12,0.0,0.0,92,0.00,,,0.04,Wunderground v.1.15,2013-05-08 03:10:00,
2013-05-07 22:15:00,57.8,55.5,29.98,North,11,0.0,0.0,92,0.00,,,0.04,Wunderground v.1.15,2013-05-08 03:15:00,
2013-05-07 22:20:00,57.5,55.2,29.98,North,11,0.0,0.0,92,0.00,,,0.04,Wunderground v.1.15,2013-05-08 03:20:00,
2013-05-07 22:25:00,57.3,55.0,29.98,NNE,12,0.0,0.0,92,0.00,,,0.04,Wunderground v.1.15,2013-05-08 03:25:00,
2013-05-07 22:30:00,57.1,54.8,29.98,NNE,12,0.0,0.0,92,0.00,,,0.04,Wunderground v.1.15,2013-05-08 03:30:00,
2013-05-07 22:35:00,56.9,54.6,29.98,North,11,0.0,0.0,92,0.00,,,0.04,Wunderground v.1.15,2013-05-08 03:35:00,
2013-05-07 22:40:00,56.7,54.7,29.98,NNE,12,0.0,0.0,93,0.00,,,0.04,Wunderground v.1.15,2013-05-08 03:40:00,
2013-05-07 22:45:00,56.5,54.5,29.98,North,11,0.0,0.0,93,0.00,,,0.04,Wunderground v.1.15,2013-05-08 03:45:00,
2013-05-07 22:55:00,56.2,54.2,29.98,NNE,12,0.0,0.0,93,0.00,,,0.04,Wunderground v.1.15,2013-05-08 03:55:00,
2013-05-07 23:00:00,56.0,54.0,29.97,North,11,0.0,0.0,93,0.00,,,0.04,Wunderground v.1.15,2013-05-08 04:00:00,
2013-05-07 23:05:00,55.9,53.9,29.97,NNE,12,0.0,0.0,93,0.00,,,0.04,Wunderground v.1.15,2013-05-08 04:05:00,
2013-05-07 23:10:00,55.9,54.2,29.97,North,11,0.0,0.0,94,0.00,,,0.04,Wunderground v.1.15,2013-05-08 04:10:00,
2013-05-07 23:15:00,55.8,54.1,29.98,NNE,12,0.0,0.0,94,0.00,,,0.04,Wunderground v.1.15,2013-05-08 04:15:00,
2013-05-07 23:20:00,55.7,54.0,29.98,NNE,12,0.0,0.0,94,0.00,,,0.04,Wunderground v.1.15,2013-05-08 04:20:00,
2013-05-07 23:25:00,55.5,53.8,29.98,NNE,12,0.0,0.0,94,0.00,,,0.04,Wunderground v.1.15,2013-05-08 04:25:00,
2013-05-07 23:30:00,55.4,53.7,29.98,North,11,0.0,0.0,94,0.00,,,0.04,Wunderground v.1.15,2013-05-08 04:30:00,
2013-05-07 23:35:00,55.2,53.5,29.98,NNE,12,0.0,0.0,94,0.00,,,0.04,Wunderground v.1.15,2013-05-08 04:35:00,
2013-05-07 23:40:00,55.1,53.4,29.98,NNE,12,0.0,0.0,94,0.00,,,0.04,Wunderground v.1.15,2013-05-08 04:40:00,
2013-05-07 23:45:00,54.9,53.2,29.98,North,11,0.0,0.0,94,0.00,,,0.04,Wunderground v.1.15,2013-05-08 04:45:00,
2013-05-07 23:50:00,54.8,53.1,29.98,NNE,12,0.0,0.0,94,0.00,,,0.04,Wunderground v.1.15,2013-05-08 04:50:00,
2013-05-07 23:55:00,54.7,53.0,29.97,NNE,12,0.0,0.0,94,0.00,,,0.04,Wunderground v.1.15,2013-05-08 04:55:00,